Ann Arbor, MI

8:15 PM EDT on June 23, 2017 (GMT -0400)
Ann Arbor Municipal

Weather History for KARB - March, 2013

Change the Weather History Date:

Tuesday, March 5, 2013

  Actual Average Record
Temperature  
Mean Temperature 26 °F -  
Max Temperature 34 °F 34 °F 66 °F (2004)
Min Temperature 19 °F 18 °F -5 °F (2015)
Degree Days  
Heating Degree Days 38    
Moisture  
Dew Point 21 °F    
Average Humidity 76    
Maximum Humidity 92    
Minimum Humidity 61    
Precipitation  
Precipitation 0.00 in - - ()
Sea Level Pressure  
Sea Level Pressure 29.98 in    
Wind  
Wind Speed 8 mph (East)    
Max Wind Speed 15 mph    
Max Gust Speed 24 mph    
Visibility 10 miles    
Events      
Averages and records for this station are not official NWS values.
T = Trace of Precipitation, MM = Missing Value Source: NWS Daily Summary

Daily Weather History Graph

Daily Weather History Graph

Search for Another Location

Airport or City:

Trip Planner

Search our weather history database for the weather conditions in past years. The results will help you decide how hot, cold, wet, or windy it might be!

Date:

Astronomy

Mar. 05, 2013 Rise Set
Actual Time 7:03 AM EST 6:30 PM EST
Civil Twilight 6:35 AM EST 6:58 PM EST
Nautical Twilight 6:02 AM EST 7:30 PM EST
Astronomical Twilight 5:30 AM EST 8:03 PM EST
Moon 2:19 AM EST (3/5) 12:03 PM EST (3/5)
Length of Visible Light 12h 22m
Length of Day
11h 26m
Last Quarter, 41% of the Moon is Illuminated
Mar 5
Last Quarter
Mar 11
New
Mar 19
First Quarter
Mar 27
Full
Apr 3
Last Quarter

Hourly Weather History & Observations

Time (EST) Temp. Windchill Dew Point Humidity Pressure Visibility Wind Dir Wind Speed Gust Speed Precip Events Conditions
12:53 AM 23.0 °F 15.8 °F 16.0 °F 74% 30.14 in 10.0 mi ENE 5.8 mph - N/A   Clear
2:53 AM 21.9 °F 14.5 °F 17.1 °F 82% 30.12 in 10.0 mi ENE 5.8 mph - N/A   Clear
3:53 AM 21.0 °F 14.6 °F 17.1 °F 85% 30.10 in 10.0 mi ENE 4.6 mph - N/A   Clear
4:53 AM 21.0 °F 13.4 °F 17.1 °F 85% 30.09 in 9.0 mi ENE 5.8 mph - N/A   Clear
5:53 AM 21.0 °F 12.4 °F 18.0 °F 88% 30.08 in 9.0 mi ENE 6.9 mph - N/A   Clear
6:53 AM 19.9 °F 11.1 °F 18.0 °F 92% 30.08 in 6.0 mi ENE 6.9 mph - N/A   Clear
7:12 AM 21.2 °F 13.6 °F 17.6 °F 86% 30.04 in 5.0 mi East 5.8 mph - N/A   Mostly Cloudy
8:48 AM 24.8 °F 14.6 °F 19.4 °F 80% 30.04 in 10.0 mi East 10.4 mph - N/A   Overcast
8:53 AM 24.1 °F 17.0 °F 19.0 °F 81% 30.08 in 10.0 mi East 5.8 mph - N/A   Overcast
9:53 AM 26.1 °F 18.4 °F 21.0 °F 81% 30.06 in 10.0 mi ESE 6.9 mph - N/A   Overcast
10:12 AM 26.6 °F 16.8 °F 21.2 °F 80% 30.02 in 10.0 mi ESE 10.4 mph - N/A   Mostly Cloudy
10:53 AM 28.9 °F 19.2 °F 21.0 °F 72% 30.04 in 10.0 mi ESE 11.5 mph - N/A   Mostly Cloudy
11:07 AM 28.4 °F 19.7 °F 21.2 °F 74% 30.00 in 10.0 mi East 9.2 mph - N/A   Scattered Clouds
11:53 AM 30.9 °F 20.7 °F 21.0 °F 67% 30.00 in 10.0 mi East 13.8 mph 18.4 mph N/A   Partly Cloudy
12:53 PM 32.0 °F 23.0 °F 23.0 °F 69% 29.99 in 10.0 mi East 11.5 mph 18.4 mph N/A   Clear
1:53 PM 33.1 °F 24.4 °F 23.0 °F 66% 29.94 in 10.0 mi ESE 11.5 mph - N/A   Clear
2:53 PM 34.0 °F 24.6 °F 21.9 °F 61% 29.91 in 10.0 mi East 13.8 mph 20.7 mph N/A   Mostly Cloudy
3:53 PM 34.0 °F 26.6 °F 21.9 °F 61% 29.88 in 10.0 mi East 9.2 mph 18.4 mph N/A   Partly Cloudy
4:53 PM 33.1 °F 23.4 °F 24.1 °F 70% 29.86 in 10.0 mi ESE 13.8 mph 20.7 mph N/A   Clear
5:53 PM 32.0 °F 24.2 °F 24.1 °F 73% 29.86 in 10.0 mi East 9.2 mph - N/A   Mostly Cloudy
6:53 PM 32.0 °F 23.6 °F 24.1 °F 73% 29.85 in 10.0 mi ENE 10.4 mph 20.7 mph N/A   Overcast
7:53 PM 32.0 °F 23.6 °F 25.0 °F 75% 29.84 in 10.0 mi ENE 10.4 mph - N/A   Overcast
8:53 PM 30.0 °F 21.1 °F 24.1 °F 79% 29.84 in 10.0 mi NE 10.4 mph 20.7 mph N/A   Overcast
9:53 PM 28.9 °F 18.2 °F 23.0 °F 78% 29.85 in 10.0 mi NNE 13.8 mph 24.2 mph N/A   Overcast
10:53 PM 28.0 °F 17.0 °F 21.9 °F 78% 29.85 in 10.0 mi NNE 13.8 mph - N/A   Clear
11:53 PM 28.0 °F 16.5 °F 21.9 °F 78% 29.85 in 10.0 mi NNE 15.0 mph - N/A   Partly Cloudy